Weather History for Rickenbacker, OH

Change the Weather History Date:

Friday, October 21, 2011

  Actual Average Record
Temperature  
Mean Temperature 50 °F -  
Max Temperature 56 °F 61 °F 80 °F (2007)
Min Temperature 44 °F 42 °F 32 °F (1997)
Degree Days  
Heating Degree Days 15    
Moisture  
Dew Point 37 °F    
Average Humidity 68    
Maximum Humidity 77    
Minimum Humidity 45    
Precipitation  
Precipitation 0.00 in - - ()
Sea Level Pressure  
Sea Level Pressure 29.99 in    
Wind  
Wind Speed 12 mph (WSW)    
Max Wind Speed 18 mph    
Max Gust Speed 24 mph    
Visibility 10 miles    
Events      
Averages and records for this station are not official NWS values.
T = Trace of Precipitation, MM = Missing Value Source: NWS Daily Summary

Daily Weather History Graph

Daily Weather History Graph

Search for Another Location

Airport:

Trip Planner

Search our weather history database for the weather conditions in past years. The results will help you decide how hot, cold, wet, or windy it might be!

Date:

Astronomy

Oct. 21, 2011 Rise Set
Actual Time 7:48 AM EDT 6:44 PM EDT
Civil Twilight 7:20 AM EDT 7:11 PM EDT
Nautical Twilight 6:49 AM EDT 7:42 PM EDT
Astronomical Twilight 6:17 AM EDT 8:14 PM EDT
Moon 1:37 AM EDT (10/21) 3:27 PM EDT (10/21)
Length of Visible Light 11h 50m
Length of Day
10h 56m
Waning Crescent, 34% of the Moon is Illuminated
Oct 21
Waning Crescent
Oct 26
New
Nov 2
First Quarter
Nov 10
Full
Nov 18
Last Quarter

Hourly Weather History & Observations

Time (EDT) Temp. Windchill Dew Point Humidity Pressure Visibility Wind Dir Wind Speed Gust Speed Precip Events Conditions
12:15 AM 45.0 °F 37.4 °F 38.3 °F 77% 29.86 in 10.0 mi WSW 18.4 mph 24.2 mph N/A   Overcast
12:35 AM 45.1 °F 38.1 °F 38.3 °F 77% 29.86 in 10.0 mi WSW 16.1 mph 23.0 mph N/A   Overcast
12:55 AM 45.3 °F 39.0 °F 38.3 °F 76% 29.87 in 10.0 mi WSW 13.8 mph - N/A   Overcast
1:15 AM 45.3 °F 38.7 °F 38.5 °F 77% 29.88 in 10.0 mi WSW 15.0 mph - N/A   Overcast
1:35 AM 45.5 °F 39.6 °F 38.5 °F 76% 29.88 in 10.0 mi WSW 12.7 mph - N/A   Overcast
1:55 AM 45.5 °F 38.6 °F 38.5 °F 76% 29.88 in 10.0 mi WSW 16.1 mph - N/A   Overcast
2:15 AM 45.3 °F 39.0 °F 38.1 °F 76% 29.89 in 10.0 mi WSW 13.8 mph 20.7 mph N/A   Overcast
2:35 AM 45.3 °F 39.3 °F 38.1 °F 76% 29.90 in 10.0 mi WSW 12.7 mph - N/A   Overcast
2:55 AM 45.0 °F 38.9 °F 38.3 °F 77% 29.90 in 10.0 mi WSW 12.7 mph 17.3 mph N/A   Overcast
3:15 AM 45.0 °F 38.2 °F 38.3 °F 77% 29.91 in 10.0 mi WSW 15.0 mph - N/A   Overcast
3:35 AM 44.8 °F 38.3 °F 37.9 °F 77% 29.91 in 10.0 mi WSW 13.8 mph - N/A   Overcast
3:55 AM 45.0 °F 39.3 °F 37.8 °F 76% 29.91 in 10.0 mi WSW 11.5 mph - N/A   Overcast
4:15 AM 45.0 °F 38.5 °F 37.8 °F 76% 29.92 in 10.0 mi WSW 13.8 mph 19.6 mph N/A   Overcast
4:35 AM 45.0 °F 38.9 °F 37.8 °F 76% 29.92 in 10.0 mi SW 12.7 mph - N/A   Overcast
4:55 AM 45.0 °F 39.7 °F 37.8 °F 76% 29.93 in 10.0 mi WSW 10.4 mph - N/A   Overcast
5:15 AM 44.8 °F 38.7 °F 37.6 °F 76% 29.93 in 10.0 mi WSW 12.7 mph 16.1 mph N/A   Overcast
5:35 AM 45.0 °F 40.1 °F 37.6 °F 75% 29.94 in 10.0 mi SW 9.2 mph - N/A   Overcast
5:55 AM 45.0 °F 39.7 °F 37.8 °F 76% 29.95 in 10.0 mi WSW 10.4 mph - N/A   Overcast
6:15 AM 44.8 °F 39.4 °F 37.8 °F 76% 29.95 in 10.0 mi WSW 10.4 mph - N/A   Overcast
6:35 AM 44.6 °F 40.2 °F 37.4 °F 76% 29.97 in 10.0 mi WSW 8.1 mph - N/A   Overcast
6:55 AM 44.8 °F 39.9 °F 37.6 °F 76% 29.97 in 10.0 mi WSW 9.2 mph - N/A   Overcast
7:15 AM 44.6 °F 40.2 °F 37.4 °F 76% 29.98 in 10.0 mi SW 8.1 mph - N/A   Overcast
7:35 AM 44.6 °F 39.7 °F 37.4 °F 76% 29.98 in 10.0 mi SW 9.2 mph - N/A   Overcast
7:55 AM 44.8 °F 39.9 °F 37.4 °F 75% 29.99 in 10.0 mi SW 9.2 mph 16.1 mph N/A   Overcast
8:15 AM 44.8 °F 39.9 °F 37.4 °F 75% 30.00 in 10.0 mi WSW 9.2 mph - N/A   Overcast
8:35 AM 44.8 °F 39.9 °F 37.6 °F 76% 30.01 in 10.0 mi WSW 9.2 mph - N/A   Overcast
8:55 AM 45.0 °F 40.1 °F 37.6 °F 75% 30.02 in 10.0 mi WSW 9.2 mph - N/A   Overcast
9:15 AM 45.5 °F 40.3 °F 37.6 °F 74% 30.03 in 10.0 mi WSW 10.4 mph - N/A   Overcast
9:35 AM 45.7 °F 40.2 °F 37.6 °F 73% 30.03 in 10.0 mi WSW 11.5 mph - N/A   Overcast
9:55 AM 46.2 °F 41.7 °F 37.9 °F 73% 30.04 in 10.0 mi West 9.2 mph - N/A   Overcast
10:15 AM 47.1 °F - 38.3 °F 71% 30.05 in 10.0 mi West 11.5 mph 16.1 mph N/A   Overcast
10:35 AM 48.0 °F - 38.3 °F 69% 30.05 in 7.0 mi West 9.2 mph - N/A   Overcast
10:55 AM 48.2 °F - 37.4 °F 66% 30.05 in 10.0 mi WSW 11.5 mph - N/A   Overcast
11:15 AM 48.0 °F - 38.1 °F 69% 30.06 in 10.0 mi WSW 11.5 mph - N/A   Overcast
11:35 AM 48.6 °F - 38.5 °F 68% 30.06 in 10.0 mi West 10.4 mph - N/A   Overcast
11:55 AM 49.5 °F - 38.5 °F 66% 30.07 in 10.0 mi West 9.2 mph - N/A   Overcast
12:15 PM 49.8 °F - 38.1 °F 64% 30.07 in 10.0 mi West 6.9 mph - N/A   Overcast
12:35 PM 51.1 °F - 38.3 °F 62% 30.06 in 10.0 mi West 6.9 mph - N/A   Overcast
12:55 PM 52.2 °F - 38.1 °F 59% 30.06 in 10.0 mi NW 8.1 mph - N/A   Overcast
1:15 PM 51.8 °F - 37.2 °F 58% 30.06 in 10.0 mi WNW 3.5 mph - N/A   Overcast
1:35 PM 52.3 °F - 36.7 °F 55% 30.05 in 10.0 mi West 6.9 mph - N/A   Overcast
1:55 PM 54.0 °F - 36.9 °F 52% 30.05 in 10.0 mi WNW 6.9 mph - N/A   Overcast
2:15 PM 54.1 °F - 36.5 °F 51% 30.04 in 10.0 mi WSW 3.5 mph - N/A   Overcast
2:35 PM 54.7 °F - 36.3 °F 50% 30.04 in 10.0 mi WSW 10.4 mph - N/A   Overcast
2:55 PM 54.7 °F - 36.7 °F 51% 30.04 in 10.0 mi WSW 8.1 mph - N/A   Overcast
3:15 PM 54.9 °F - 36.0 °F 49% 30.04 in 10.0 mi WSW 10.4 mph - N/A   Overcast
3:35 PM 55.8 °F - 35.8 °F 47% 30.04 in 10.0 mi WSW 8.1 mph - N/A   Overcast
3:55 PM 55.4 °F - 35.4 °F 47% 30.04 in 10.0 mi West 11.5 mph - N/A   Overcast
4:15 PM 56.7 °F - 35.2 °F 45% 30.04 in 10.0 mi WSW 12.7 mph 16.1 mph N/A   Overcast
4:35 PM 56.3 °F - 35.2 °F 45% 30.05 in 10.0 mi West 9.2 mph - N/A   Overcast
4:55 PM 55.8 °F - 35.6 °F 47% 30.05 in 10.0 mi WSW 6.9 mph - N/A   Overcast
5:15 PM 56.1 °F - 36.0 °F 47% 30.05 in 10.0 mi WSW 8.1 mph - N/A   Overcast
5:35 PM 55.4 °F - 35.2 °F 47% 30.05 in 10.0 mi WSW 6.9 mph - N/A   Overcast
5:55 PM 54.7 °F - 36.1 °F 50% 30.05 in 10.0 mi WSW 6.9 mph - N/A   Overcast
6:15 PM 54.3 °F - 36.9 °F 52% 30.06 in 10.0 mi SW 5.8 mph - N/A   Overcast
6:35 PM 53.8 °F - 37.2 °F 54% 30.07 in 10.0 mi SW 3.5 mph - N/A   Overcast
6:55 PM 53.4 °F - 38.1 °F 56% 30.07 in 10.0 mi SSW 3.5 mph - N/A   Overcast
7:15 PM 52.9 °F - 38.1 °F 57% 30.07 in 10.0 mi South 4.6 mph - N/A   Overcast
7:35 PM 52.3 °F - 37.8 °F 58% 30.07 in 10.0 mi SSW 4.6 mph - N/A   Overcast
7:55 PM 52.2 °F - 38.1 °F 59% 30.08 in 10.0 mi South 4.6 mph - N/A   Overcast
8:15 PM 51.8 °F - 37.9 °F 59% 30.08 in 10.0 mi South 4.6 mph - N/A   Overcast
8:35 PM 51.8 °F - 38.3 °F 60% 30.08 in 10.0 mi SSW 4.6 mph - N/A   Overcast
8:55 PM 51.8 °F - 38.1 °F 60% 30.08 in 10.0 mi SSW 4.6 mph - N/A   Overcast
9:15 PM 51.4 °F - 38.3 °F 61% 30.08 in 10.0 mi SSW 4.6 mph - N/A   Overcast
9:35 PM 50.7 °F - 38.3 °F 62% 30.09 in 10.0 mi SSW 4.6 mph - N/A   Overcast
9:55 PM 48.9 °F - 38.1 °F 66% 30.10 in 10.0 mi Calm Calm - N/A   Scattered Clouds
10:15 PM 49.8 °F - 37.4 °F 62% 30.10 in 10.0 mi Calm Calm - N/A   Clear
10:35 PM 48.7 °F - 37.0 °F 64% 30.10 in 10.0 mi NE 4.6 mph - N/A   Clear
10:55 PM 46.4 °F 44.3 °F 37.4 °F 71% 30.11 in 10.0 mi NE 4.6 mph - N/A   Clear
11:15 PM 46.9 °F - 37.4 °F 69% 30.10 in 10.0 mi NE 3.5 mph - N/A   Clear
11:35 PM 46.4 °F - 37.4 °F 71% 30.11 in 10.0 mi Calm Calm - N/A   Clear
11:55 PM 45.9 °F - 36.9 °F 71% 30.11 in 10.0 mi Calm Calm - N/A   Clear